Weather History for La Grange, TX

Change the Weather History Date:

Friday, April 19, 2013

  Actual Average (KAUS) Record (KAUS)
Temperature  
Mean Temperature 57 °F 68 °F  
Max Temperature 68 °F 81 °F 99 °F (1951)
Min Temperature 46 °F 56 °F 40 °F (2013)
Degree Days  
Heating Degree Days 8 2  
Month to date heating degree days 53  
Since 1 July heating degree days 1890  
Cooling Degree Days 0 5  
Month to date cooling degree days 69  
Year to date cooling degree days 127  
Growing Degree Days 7 (Base 50)    
Moisture  
Dew Point 37 °F    
Average Humidity 52    
Maximum Humidity 84    
Minimum Humidity 23    
Precipitation  
Precipitation 0.00 in 0.07 in 2.04 in (1949)
Month to date precipitation 1.27  
Year to date precipitation 8.38  
Snow  
Snow 0.00 in - - ()
Month to date snowfall  
Since 1 July snowfall  
Snow Depth -    
Sea Level Pressure  
Sea Level Pressure 30.20 in    
Wind  
Wind Speed 10 mph (North)    
Max Wind Speed 18 mph    
Max Gust Speed 26 mph    
Visibility 10 miles    
Events      
T = Trace of Precipitation, MM = Missing Value Source: NWS Daily Summary

Daily Weather History Graph

Daily Weather History Graph

Search for Another Location

Airport:

Trip Planner

Search our weather history database for the weather conditions in past years. The results will help you decide how hot, cold, wet, or windy it might be!

Date:

Astronomy

Apr. 19, 2013 Rise Set
Actual Time 6:56 AM CDT 7:57 PM CDT
Civil Twilight 6:31 AM CDT 8:22 PM CDT
Nautical Twilight 6:02 AM CDT 8:51 PM CDT
Astronomical Twilight 5:32 AM CDT 9:21 PM CDT
Moon 2:09 PM CDT (4/19) 2:45 AM CDT (4/19)
Length of Visible Light 13h 50m
Length of Day
13h 01m
First Quarter, 62% of the Moon is Illuminated
Apr 19
First Quarter
Apr 25
Full
May 2
Last Quarter
May 9
New
May 17
First Quarter

Hourly Weather History & Observations

Time (CDT) Temp. Windchill Dew Point Humidity Pressure Visibility Wind Dir Wind Speed Gust Speed Precip Events Conditions
12:15 AM 55.4 °F - 43.2 °F 63% 30.06 in 10.0 mi North 12.7 mph 19.6 mph N/A   Clear
12:35 AM 55.0 °F - 42.8 °F 63% 30.07 in 10.0 mi North 13.8 mph 20.7 mph N/A   Clear
12:55 AM 55.0 °F - 41.5 °F 60% 30.08 in 10.0 mi North 12.7 mph 20.7 mph N/A   Clear
1:15 AM 54.9 °F - 41.0 °F 60% 30.09 in 10.0 mi North 11.5 mph 20.7 mph N/A   Clear
1:35 AM 54.5 °F - 40.6 °F 60% 30.11 in 10.0 mi North 13.8 mph 20.7 mph N/A   Clear
1:55 AM 54.0 °F - 40.5 °F 60% 30.12 in 10.0 mi North 16.1 mph 23.0 mph N/A   Clear
2:15 AM 53.6 °F - 40.1 °F 60% 30.13 in 10.0 mi North 11.5 mph 19.6 mph N/A   Clear
2:35 AM 53.2 °F - 39.7 °F 60% 30.14 in 10.0 mi North 9.2 mph 17.3 mph N/A   Clear
2:55 AM 52.9 °F - 39.4 °F 60% 30.15 in 10.0 mi North 6.9 mph - N/A   Clear
3:15 AM 52.2 °F - 38.7 °F 60% 30.16 in 10.0 mi North 8.1 mph - N/A   Clear
3:35 AM 51.8 °F - 38.5 °F 60% 30.17 in 10.0 mi North 8.1 mph - N/A   Clear
3:55 AM 50.9 °F - 38.7 °F 63% 30.17 in 10.0 mi North 5.8 mph - N/A   Clear
4:15 AM 50.5 °F - 39.0 °F 65% 30.18 in 10.0 mi North 4.6 mph - N/A   Clear
4:35 AM 49.6 °F - 39.4 °F 68% 30.18 in 10.0 mi NNW 8.1 mph - N/A   Clear
4:55 AM 49.3 °F - 39.6 °F 69% 30.17 in 10.0 mi NNW 9.2 mph - N/A   Clear
5:15 AM 48.9 °F - 39.4 °F 70% 30.17 in 10.0 mi NNW 8.1 mph - N/A   Clear
5:35 AM 48.4 °F - 39.6 °F 72% 30.18 in 10.0 mi NNW 6.9 mph - N/A   Clear
5:55 AM 47.7 °F - 39.7 °F 74% 30.19 in 10.0 mi NNW 5.8 mph - N/A   Clear
6:15 AM 46.8 °F - 40.3 °F 78% 30.20 in 10.0 mi NNW 8.1 mph - N/A   Clear
6:35 AM 46.6 °F - 40.1 °F 78% 30.20 in 10.0 mi North 10.4 mph - N/A   Clear
6:55 AM 46.4 °F 40.7 °F 40.1 °F 79% 30.20 in 10.0 mi NNW 12.7 mph - N/A   Clear
7:15 AM 46.4 °F 42.4 °F 40.1 °F 79% 30.21 in 10.0 mi North 8.1 mph - N/A   Clear
7:35 AM 46.4 °F 44.3 °F 40.6 °F 80% 30.22 in 10.0 mi NNW 4.6 mph - N/A   Clear
7:55 AM 47.1 °F - 41.0 °F 79% 30.24 in 10.0 mi NNW 4.6 mph - N/A   Clear
8:15 AM 48.2 °F - 41.0 °F 76% 30.24 in 10.0 mi NNW 8.1 mph - N/A   Clear
8:35 AM 49.3 °F - 41.0 °F 73% 30.25 in 10.0 mi North 5.8 mph - N/A   Clear
8:55 AM 50.5 °F - 40.5 °F 68% 30.25 in 10.0 mi North 9.2 mph - N/A   Clear
9:15 AM 51.8 °F - 39.4 °F 63% 30.25 in 10.0 mi North 8.1 mph - N/A   Clear
9:35 AM 53.2 °F - 39.0 °F 59% 30.25 in 10.0 mi North 11.5 mph 17.3 mph N/A   Clear
9:55 AM 54.7 °F - 37.6 °F 53% 30.25 in 10.0 mi NNE 12.7 mph 20.7 mph N/A   Clear
10:15 AM 56.3 °F - 36.7 °F 48% 30.25 in 10.0 mi North 11.5 mph 18.4 mph N/A   Clear
10:35 AM 57.9 °F - 33.1 °F 39% 30.26 in 10.0 mi North 18.4 mph 24.2 mph N/A   Clear
10:55 AM 59.2 °F - 32.5 °F 37% 30.27 in 10.0 mi North 16.1 mph 24.2 mph N/A   Clear
11:15 AM 59.9 °F - 32.4 °F 35% 30.27 in 10.0 mi North 12.7 mph 20.7 mph N/A   Clear
11:35 AM 60.1 °F - 30.4 °F 33% 30.27 in 10.0 mi NNW 17.3 mph 23.0 mph N/A   Clear
11:55 AM 61.9 °F - 31.5 °F 32% 30.27 in 10.0 mi NNW 13.8 mph 21.9 mph N/A   Clear
12:15 PM 62.6 °F - 32.0 °F 32% 30.27 in 10.0 mi North 11.5 mph 24.2 mph N/A   Clear
12:35 PM 62.8 °F - 30.7 °F 30% 30.27 in 10.0 mi North 15.0 mph 24.2 mph N/A   Clear
12:55 PM 63.7 °F - 31.6 °F 30% 30.26 in 10.0 mi North 13.8 mph 26.5 mph N/A   Clear
1:15 PM 63.9 °F - 32.5 °F 31% 30.25 in 10.0 mi North 15.0 mph 24.2 mph N/A   Clear
1:35 PM 64.0 °F - 31.3 °F 29% 30.25 in 10.0 mi NNW 16.1 mph 21.9 mph N/A   Clear
1:55 PM 64.6 °F - 30.7 °F 28% 30.24 in 10.0 mi North 13.8 mph 24.2 mph N/A   Clear
2:15 PM 65.5 °F - 32.4 °F 29% 30.23 in 10.0 mi North 15.0 mph 20.7 mph N/A   Clear
2:35 PM 65.8 °F - 32.4 °F 29% 30.22 in 10.0 mi North 16.1 mph 24.2 mph N/A   Clear
2:55 PM 66.4 °F - 32.0 °F 28% 30.22 in 10.0 mi NNW 16.1 mph 21.9 mph N/A   Clear
3:15 PM 66.9 °F - 30.9 °F 26% 30.21 in 10.0 mi North 16.1 mph 25.3 mph N/A   Clear
3:35 PM 66.9 °F - 31.6 °F 27% 30.20 in 10.0 mi North 12.7 mph 19.6 mph N/A   Clear
3:55 PM 67.5 °F - 30.4 °F 25% 30.19 in 10.0 mi North 11.5 mph 24.2 mph N/A   Clear
4:15 PM 68.2 °F - 31.5 °F 26% 30.18 in 10.0 mi North 13.8 mph 19.6 mph N/A   Clear
4:35 PM 68.2 °F - 30.0 °F 24% 30.17 in 10.0 mi NNW 13.8 mph 26.5 mph N/A   Clear
4:55 PM 67.5 °F - 30.0 °F 25% 30.17 in 10.0 mi North 11.5 mph - N/A   Clear
5:15 PM 68.0 °F - 29.1 °F 23% 30.16 in 10.0 mi North 10.4 mph 20.7 mph N/A   Clear
5:35 PM 67.3 °F - 29.5 °F 24% 30.16 in 10.0 mi North 9.2 mph - N/A   Clear
5:55 PM 68.0 °F - 30.7 °F 25% 30.16 in 10.0 mi North 9.2 mph - N/A   Clear
6:15 PM 66.9 °F - 30.0 °F 25% 30.16 in 10.0 mi NNW 9.2 mph - N/A   Clear
6:35 PM 67.1 °F - 30.9 °F 26% 30.16 in 10.0 mi North 8.1 mph - N/A   Clear
6:55 PM 66.4 °F - 30.9 °F 27% 30.15 in 10.0 mi North 4.6 mph - N/A   Clear
7:15 PM 65.5 °F - 32.2 °F 29% 30.15 in 10.0 mi North 4.6 mph - N/A   Clear
7:35 PM 64.2 °F - 32.5 °F 31% 30.16 in 10.0 mi NNE 4.6 mph - N/A   Clear
7:55 PM 62.8 °F - 33.8 °F 34% 30.16 in 10.0 mi Calm Calm - N/A   Clear
8:15 PM 61.2 °F - 34.7 °F 37% 30.17 in 10.0 mi Calm Calm - N/A   Clear
8:35 PM 58.5 °F - 37.0 °F 45% 30.17 in 10.0 mi Calm Calm - N/A   Clear
8:55 PM 53.8 °F - 42.8 °F 66% 30.19 in 10.0 mi Calm Calm - N/A   Clear
9:15 PM 52.5 °F - 43.2 °F 70% 30.19 in 10.0 mi Calm Calm - N/A   Clear
9:35 PM 51.8 °F - 43.3 °F 73% 30.20 in 10.0 mi Calm Calm - N/A   Clear
9:55 PM 51.3 °F - 42.3 °F 71% 30.21 in 10.0 mi Calm Calm - N/A   Clear
10:15 PM 50.0 °F - 43.0 °F 77% 30.21 in 10.0 mi Calm Calm - N/A   Clear
10:35 PM 49.5 °F - 43.2 °F 79% 30.22 in 10.0 mi Calm Calm - N/A   Clear
10:55 PM 49.1 °F - 41.0 °F 74% 30.22 in 10.0 mi Calm Calm - N/A   Clear
11:15 PM 48.6 °F - 42.4 °F 79% 30.22 in 10.0 mi Calm Calm - N/A   Clear
11:35 PM 48.4 °F - 42.4 °F 80% 30.22 in 10.0 mi Calm Calm - N/A   Clear
11:55 PM 47.3 °F - 42.6 °F 84% 30.22 in 10.0 mi Calm Calm - N/A   Clear